period_start,C,m1,H,J0,J1,J2,J3,J4,J5,JA,JB,JC,JD,JJ,JK,JN,#
2014-12-08 00:03:31,0.12,5.58,0.00,19.06,23.55,26.69,4.93,27.59,1030.79,2044.00,1771.06,2132.03,2308.70,350.08,357.17,29.06,0000 0000 0000 0000 000000
2014-12-08 00:08:33,0.07,5.58,0.00,19.13,23.57,26.71,4.99,27.66,1030.80,2044.00,1770.58,2131.89,2308.04,350.34,357.53,29.09,0000 0000 0000 0000 000000
2014-12-08 00:13:35,0.11,5.58,0.00,19.11,23.57,26.71,4.96,27.68,1030.96,2044.00,1769.98,2131.10,2307.91,350.23,357.51,29.12,0000 0000 0000 0000 000000
2014-12-08 00:18:36,0.08,5.59,0.00,19.04,23.57,26.70,4.90,27.54,1031.00,2043.98,1769.53,2130.99,2307.14,349.67,357.01,29.15,0000 0000 0000 0000 000000
2014-12-08 00:23:38,0.09,5.59,0.00,19.14,23.59,26.69,4.97,27.69,1030.82,2043.98,1769.00,2130.48,2306.98,349.75,356.99,29.17,0000 0000 0000 0000 000000
2014-12-08 00:28:40,0.09,5.59,0.00,19.16,23.60,26.76,4.91,27.55,1030.85,2043.99,1768.62,2130.01,2306.25,349.80,357.09,29.20,0000 0000 0000 0000 000000
2014-12-08 00:33:42,0.06,5.59,0.00,19.14,23.61,26.73,4.92,27.49,1030.82,2043.98,1768.04,2129.84,2305.99,349.59,356.76,29.23,0000 0000 0000 0000 000000
2014-12-08 00:38:43,0.16,5.60,0.00,19.11,23.62,26.70,4.95,27.74,1030.96,2043.96,1767.64,2129.11,2305.37,350.05,357.33,29.26,0000 0000 0000 0000 000000
2014-12-08 00:43:45,0.02,5.60,0.00,19.20,23.62,26.76,4.95,27.61,1031.04,2043.93,1767.00,2128.97,2305.00,350.32,357.51,29.29,0000 0000 0000 0000 000000
2014-12-08 00:48:46,0.19,5.60,0.00,19.23,23.64,26.80,4.91,27.44,1031.05,2043.94,1766.35,2128.21,2304.44,349.93,356.95,29.32,0000 0000 0000 0000 000000
2014-12-08 00:53:47,0.01,5.60,0.00,19.18,23.65,26.81,4.96,27.73,1030.91,2043.81,1765.85,2127.94,2303.97,349.97,356.95,29.35,0000 0000 0000 0000 000000
2014-12-08 00:58:49,0.11,5.61,0.00,19.19,23.66,26.81,4.99,27.69,1030.91,2043.59,1764.97,2127.18,2303.25,350.05,357.15,29.38,0000 0000 0000 0000 000000
2014-12-08 01:03:50,0.15,5.61,0.00,19.23,23.67,26.83,4.87,27.64,1030.88,2043.58,1764.06,2126.83,2302.99,349.88,357.02,29.41,0000 0000 0000 0000 000000
2014-12-08 01:08:51,0.18,5.62,0.00,19.25,23.67,26.81,4.94,27.64,1030.95,2043.72,1763.27,2126.05,2302.56,350.30,357.26,29.44,0000 0000 0000 0000 000000
2014-12-08 01:13:53,0.02,5.62,0.00,19.24,23.69,26.84,4.95,27.62,1030.88,2043.74,1763.01,2125.93,2301.97,350.21,357.29,29.47,0000 0000 0000 0000 000000
2014-12-08 01:18:54,0.08,5.62,0.00,19.18,23.70,26.89,4.90,27.59,1031.12,2043.65,1762.95,2125.29,2301.22,349.90,357.25,29.50,0000 0000 0000 0000 000000
2014-12-08 01:23:56,0.00,5.62,0.00,19.26,23.70,26.89,4.92,27.68,1031.24,2043.21,1762.15,2124.99,2300.96,349.67,356.94,29.53,0000 0000 0000 0000 000000
2014-12-08 01:28:57,0.09,5.62,0.00,19.30,23.72,26.89,4.92,27.65,1031.27,2043.05,1762.00,2124.46,2300.12,350.15,357.28,29.56,0000 0000 0000 0000 000000
2014-12-08 01:33:58,0.11,5.62,0.00,19.20,23.72,26.90,4.93,27.67,1031.26,2043.02,1761.46,2124.00,2299.56,350.40,357.78,29.58,0000 0000 0000 0000 000000
2014-12-08 01:39:00,0.28,5.63,0.00,19.13,23.73,26.89,4.85,27.84,1031.21,2043.00,1759.99,2123.12,2298.64,349.62,356.80,29.61,0000 0000 0000 0000 000000
2014-12-08 01:44:01,0.25,5.64,0.00,19.26,23.75,26.92,4.97,27.70,1031.25,2043.00,1758.26,2121.88,2297.44,350.31,357.25,29.64,0000 0000 0000 0000 000000
2014-12-08 01:49:02,0.19,5.65,0.00,19.28,23.75,26.95,4.98,27.73,1031.26,2043.00,1757.09,2121.04,2296.56,349.98,357.17,29.67,0000 0000 0000 0000 000000
2014-12-08 01:54:04,0.19,5.65,0.00,19.28,23.75,26.96,4.88,27.55,1031.28,2043.00,1756.08,2120.22,2295.71,349.82,356.86,29.70,0000 0000 0000 0000 000000
2014-12-08 01:59:05,0.25,5.66,0.00,19.21,23.77,26.94,4.92,27.63,1031.29,2043.00,1754.74,2119.32,2294.70,349.25,356.48,29.73,0000 0000 0000 0000 000000
2014-12-08 02:04:06,0.22,5.66,0.00,19.29,23.77,26.93,4.96,27.65,1031.35,2043.00,1753.47,2118.42,2293.69,349.99,357.36,29.76,0000 0000 0000 0000 000000
2014-12-08 02:09:07,0.21,5.67,0.00,19.31,23.77,26.97,4.96,27.52,1031.31,2043.00,1752.15,2117.35,2292.76,350.47,357.52,29.79,0000 0000 0000 0000 000000
2014-12-08 02:14:09,0.10,5.68,0.00,19.32,23.78,26.99,4.93,27.60,1031.27,2043.00,1751.50,2116.94,2292.03,349.56,356.65,29.82,0000 0000 0000 0000 000000
2014-12-08 02:19:10,0.21,5.68,0.00,19.26,23.80,27.00,4.93,27.67,1031.27,2043.00,1750.41,2116.10,2291.30,349.29,356.54,29.85,0000 0000 0000 0000 000000
2014-12-08 02:24:11,0.19,5.69,0.00,19.27,23.80,26.99,4.93,27.56,1031.27,2042.99,1749.54,2115.28,2290.45,349.91,357.20,29.88,0000 0000 0000 0000 000000
2014-12-08 02:29:13,0.12,5.69,0.00,19.32,23.80,27.01,4.88,27.49,1031.29,2042.99,1748.34,2114.82,2290.00,349.32,356.49,29.91,0000 0000 0000 0000 000000
2014-12-08 02:34:14,0.14,5.70,0.00,19.33,23.81,27.01,4.92,27.65,1031.56,2042.99,1747.84,2114.04,2289.37,349.91,357.16,29.94,0000 0000 0000 0000 000000
2014-12-08 02:39:15,0.14,5.70,0.00,19.29,23.82,27.04,4.96,27.89,1031.60,2042.99,1747.25,2113.65,2288.47,349.90,357.06,29.97,0000 0000 0000 0000 000000
2014-12-08 02:44:16,0.09,5.70,0.00,19.28,23.82,27.02,4.94,27.60,1031.70,2042.98,1746.57,2113.01,2288.00,349.60,356.87,29.99,0000 0000 0000 0000 000000
2014-12-08 02:49:18,0.11,5.71,0.00,19.32,23.82,27.04,4.92,27.53,1031.75,2042.97,1745.97,2112.64,2287.51,350.20,357.58,30.02,0000 0000 0000 0000 000000
2014-12-08 02:54:19,0.12,5.71,0.00,19.32,23.83,27.08,4.98,27.63,1031.73,2042.97,1745.16,2112.01,2287.00,350.43,357.86,30.05,0000 0000 0000 0000 000000
2014-12-08 02:59:21,0.16,5.71,0.00,19.28,23.84,27.08,4.91,27.57,1031.75,2042.97,1744.64,2111.52,2286.29,349.49,356.87,30.08,0000 0000 0000 0000 000000
2014-12-08 03:04:22,0.05,5.72,0.00,19.19,23.85,27.10,4.93,27.71,1031.73,2042.95,1744.01,2111.01,2285.97,349.81,357.26,30.11,0000 0000 0000 0000 000000
2014-12-08 03:09:23,0.05,5.72,0.00,19.29,23.85,27.11,4.90,27.54,1031.67,2042.92,1743.91,2110.99,2285.22,350.35,357.43,30.14,0000 0000 0000 0000 000000
2014-12-08 03:14:24,0.10,5.72,0.00,19.30,23.85,27.10,4.94,27.68,1031.72,2042.79,1743.10,2110.43,2284.95,350.14,357.46,30.17,0000 0000 0000 0000 000000
2014-12-08 03:19:26,0.06,5.72,0.00,19.27,23.85,27.12,4.97,27.70,1031.75,2042.51,1742.74,2110.00,2284.17,350.17,357.58,30.20,0000 0000 0000 0000 000000
2014-12-08 03:24:27,0.07,5.73,0.00,19.23,23.85,27.10,5.00,27.74,1031.75,2042.31,1741.89,2109.43,2283.93,350.04,357.60,30.23,0000 0000 0000 0000 000000
2014-12-08 03:29:28,0.14,5.73,0.00,19.31,23.86,27.15,5.00,27.68,1031.75,2042.29,1741.05,2108.98,2283.15,349.99,357.19,30.26,0000 0000 0000 0000 000000
2014-12-08 03:34:30,0.21,5.74,0.00,19.32,23.87,27.13,4.98,27.65,1031.74,2042.54,1740.20,2108.23,2282.90,350.72,357.92,30.29,0000 0000 0000 0000 000000
2014-12-08 03:39:31,0.05,5.74,0.00,19.32,23.87,27.15,4.94,27.82,1031.71,2042.23,1739.37,2107.85,2282.09,349.97,357.24,30.32,0000 0000 0000 0000 000000
2014-12-08 03:44:32,0.17,5.74,0.00,19.22,23.87,27.16,4.96,27.77,1031.72,2042.43,1738.88,2107.10,2281.62,350.06,357.35,30.35,0000 0000 0000 0000 000000
2014-12-08 03:49:34,0.12,5.75,0.00,19.26,23.87,27.14,4.95,27.58,1031.75,2042.52,1738.06,2106.92,2281.01,350.25,357.57,30.38,0000 0000 0000 0000 000000
2014-12-08 03:54:35,0.16,5.75,0.00,19.31,23.87,27.16,4.91,27.63,1031.75,2042.51,1737.51,2106.12,2280.66,350.06,357.50,30.40,0000 0000 0000 0000 000000
2014-12-08 03:59:36,-0.01,5.75,0.00,19.33,23.87,27.14,4.86,27.63,1031.75,2042.40,1736.98,2105.92,2280.02,349.50,356.83,30.43,0000 0000 0000 0000 000000
2014-12-08 04:04:37,0.22,5.76,0.00,19.30,23.87,27.13,5.02,27.67,1031.74,2042.50,1736.20,2105.14,2279.80,350.09,357.35,30.46,0000 0000 0000 0000 000000
2014-12-08 04:09:39,0.10,5.76,0.00,19.21,23.88,27.15,4.90,27.70,1031.75,2042.82,1735.98,2104.99,2279.05,349.41,356.75,30.49,0000 0000 0000 0000 000000
2014-12-08 04:14:40,0.11,5.76,0.00,19.32,23.89,27.15,4.91,27.56,1031.76,2042.70,1735.61,2104.60,2278.56,349.62,357.15,30.52,0000 0000 0000 0000 000000
2014-12-08 04:19:41,0.02,5.77,0.00,19.36,23.89,27.15,4.94,27.75,1031.80,2042.44,1735.02,2104.02,2277.98,349.96,357.33,30.55,0000 0000 0000 0000 000000
2014-12-08 04:24:42,0.11,5.77,0.00,19.36,23.90,27.14,4.95,27.75,1031.96,2042.16,1734.38,2103.58,2277.18,350.33,357.61,30.58,0000 0000 0000 0000 000000
2014-12-08 04:29:44,0.06,5.77,0.00,19.25,23.90,27.17,4.89,27.55,1032.13,2042.09,1733.74,2103.01,2276.98,350.13,357.67,30.61,0000 0000 0000 0000 000000
2014-12-08 04:34:45,0.13,5.77,0.00,19.29,23.90,27.14,5.00,27.71,1032.20,2042.02,1733.03,2102.64,2276.23,350.29,357.76,30.64,0000 0000 0000 0000 000000
2014-12-08 04:39:46,0.10,5.78,0.00,19.37,23.90,27.14,4.92,27.72,1032.23,2042.04,1732.37,2102.01,2275.97,349.87,357.55,30.67,0000 0000 0000 0000 000000
2014-12-08 04:44:47,0.07,5.78,0.00,19.38,23.90,27.16,4.91,27.52,1032.17,2042.04,1732.00,2101.85,2275.23,350.10,357.50,30.70,0000 0000 0000 0000 000000
2014-12-08 04:49:49,0.13,5.78,0.00,19.31,23.91,27.16,4.99,27.63,1032.07,2042.02,1731.42,2101.09,2274.99,350.15,357.56,30.73,0000 0000 0000 0000 000000
2014-12-08 04:54:50,0.04,5.78,0.00,19.23,23.92,27.17,4.93,27.61,1032.04,2042.03,1730.99,2100.97,2274.70,349.38,357.23,30.76,0000 0000 0000 0000 000000
2014-12-08 04:59:52,0.10,5.79,0.00,19.34,23.92,27.18,4.89,27.69,1031.97,2042.04,1730.73,2100.71,2274.04,349.67,357.37,30.79,0000 0000 0000 0000 000000
2014-12-08 05:04:53,0.09,5.79,0.00,19.37,23.92,27.19,4.93,27.56,1031.93,2042.06,1730.03,2100.05,2273.97,349.90,357.08,30.81,0000 0000 0000 0000 000000
2014-12-08 05:09:54,0.05,5.79,0.00,19.37,23.92,27.18,4.93,27.68,1031.96,2042.06,1729.94,2100.00,2273.34,349.73,356.89,30.84,0000 0000 0000 0000 000000
2014-12-08 05:14:56,0.12,5.79,0.00,19.22,23.92,27.21,4.95,27.54,1031.81,2042.04,1729.21,2099.57,2273.00,349.97,357.54,30.87,0000 0000 0000 0000 000000
2014-12-08 05:19:57,0.03,5.80,0.00,19.33,23.92,27.18,4.92,27.62,1031.80,2042.03,1728.98,2099.03,2272.92,349.70,357.13,30.90,0000 0000 0000 0000 000000
2014-12-08 05:24:58,0.12,5.80,0.00,19.38,23.92,27.19,4.92,27.63,1031.91,2042.02,1728.24,2098.91,2272.16,349.93,357.32,30.93,0000 0000 0000 0000 000000
2014-12-08 05:29:59,0.08,5.80,0.00,19.38,23.92,27.19,4.97,27.68,1031.98,2042.02,1727.99,2098.21,2271.99,350.18,357.47,30.96,0000 0000 0000 0000 000000
2014-12-08 05:35:01,0.09,5.80,0.00,19.34,23.93,27.20,4.86,27.57,1031.85,2042.03,1727.55,2098.00,2271.54,349.79,357.15,30.99,0000 0000 0000 0000 000000
2014-12-08 05:40:02,0.08,5.81,0.00,19.31,23.93,27.21,4.86,27.71,1031.83,2042.01,1727.03,2097.69,2270.99,349.76,357.10,31.02,0000 0000 0000 0000 000000
2014-12-08 05:45:03,0.07,5.81,0.00,19.37,23.94,27.21,4.96,27.66,1031.83,2042.04,1726.90,2097.08,2270.71,350.66,357.79,31.05,0000 0000 0000 0000 000000
2014-12-08 05:50:04,0.09,5.81,0.00,19.38,23.94,27.22,4.91,27.56,1031.82,2042.04,1726.11,2096.99,2270.04,349.17,356.31,31.08,0000 0000 0000 0000 000000
2014-12-08 05:55:05,0.07,5.81,0.00,19.30,23.95,27.17,4.93,27.68,1031.95,2042.02,1725.87,2096.62,2269.99,349.74,357.20,31.11,0000 0000 0000 0000 000000
2014-12-08 06:00:07,0.14,5.82,0.00,19.23,23.95,27.13,4.98,27.70,1032.00,2042.04,1725.12,2096.02,2269.36,350.31,357.74,31.14,0000 0000 0000 0000 000000
2014-12-08 06:05:08,0.01,5.82,0.00,19.35,23.95,27.15,4.99,27.58,1032.20,2042.03,1724.93,2095.97,2269.01,350.11,357.41,31.17,0000 0000 0000 0000 000000
2014-12-08 06:10:10,0.09,5.82,0.00,19.38,23.95,27.14,4.93,27.57,1032.23,2042.02,1724.61,2095.48,2268.84,350.11,357.59,31.19,0000 0000 0000 0000 000000
2014-12-08 06:15:11,0.11,5.83,0.00,19.44,23.95,27.16,4.97,27.62,1032.24,2042.02,1724.09,2095.02,2268.07,350.47,357.63,31.22,0000 0000 0000 0000 000000
2014-12-08 06:20:12,0.05,5.83,0.00,19.46,23.95,27.12,4.98,27.54,1032.24,2042.03,1723.67,2094.95,2268.00,350.37,357.78,31.25,0000 0000 0000 0000 000000
2014-12-08 06:25:14,0.14,5.83,0.00,19.44,23.96,27.10,4.89,27.58,1032.24,2042.03,1723.08,2094.31,2267.50,349.85,357.18,31.28,0000 0000 0000 0000 000000
2014-12-08 06:30:15,0.02,5.83,0.00,19.44,23.97,27.08,4.90,27.74,1032.24,2042.00,1722.99,2094.01,2267.01,349.55,356.98,31.31,0000 0000 0000 0000 000000
2014-12-08 06:35:17,0.06,5.83,0.00,19.52,23.97,27.10,4.91,27.73,1032.24,2042.01,1722.57,2093.95,2266.94,349.77,357.04,31.34,0000 0000 0000 0000 000000
2014-12-08 06:40:18,0.14,5.84,0.00,19.55,23.98,27.10,4.95,27.76,1032.25,2042.00,1722.00,2093.21,2266.22,350.47,357.81,31.37,0000 0000 0000 0000 000000
2014-12-08 06:45:19,0.07,5.84,0.00,19.57,24.00,27.09,5.02,27.64,1032.41,2042.00,1721.47,2093.00,2265.99,350.91,358.04,31.40,0000 0000 0000 0000 000000
2014-12-08 06:50:21,0.06,5.84,0.00,19.61,24.00,27.07,4.96,27.89,1032.63,2042.00,1721.00,2092.74,2265.83,349.81,357.13,31.43,0000 0000 0000 0000 000000
2014-12-08 06:55:22,0.09,5.84,0.00,19.60,24.02,27.07,4.88,27.58,1032.71,2042.00,1720.91,2092.07,2265.10,349.74,357.29,31.46,0000 0000 0000 0000 000000
2014-12-08 07:00:23,0.07,5.85,0.00,19.52,24.03,27.17,4.99,27.83,1032.73,2042.00,1720.38,2091.98,2264.87,349.61,357.04,31.49,0000 0000 0000 0000 000000
2014-12-08 07:05:24,0.09,5.85,0.00,19.64,24.05,27.15,4.97,27.62,1032.73,2041.99,1720.00,2091.59,2264.17,350.32,357.57,31.52,0000 0000 0000 0000 000000
2014-12-08 07:10:26,0.04,5.85,0.00,19.69,24.07,27.15,4.84,27.54,1032.73,2041.98,1719.91,2091.04,2264.00,349.25,356.49,31.55,0000 0000 0000 0000 000000
2014-12-08 07:15:27,0.11,5.85,0.00,19.73,24.08,27.12,4.88,27.50,1032.73,2041.97,1719.09,2090.96,2263.60,350.02,357.38,31.58,0000 0000 0000 0000 000000
2014-12-08 07:20:28,0.15,5.86,0.00,19.75,24.10,27.16,4.89,27.71,1032.71,2041.97,1718.62,2090.22,2263.03,349.59,356.90,31.61,0000 0000 0000 0000 000000
2014-12-08 07:25:29,0.02,5.86,0.00,19.79,24.12,27.18,4.97,27.78,1032.72,2041.97,1718.25,2090.01,2262.88,350.44,357.63,31.63,0000 0000 0000 0000 000000
2014-12-08 07:30:31,0.06,5.86,0.00,19.80,24.14,27.20,4.91,27.68,1032.73,2041.94,1717.99,2089.87,2262.10,349.59,356.67,31.66,0000 0000 0000 0000 000000
2014-12-08 07:35:32,0.09,5.86,0.00,19.85,24.16,27.21,4.88,27.53,1032.78,2041.75,1717.30,2089.10,2261.99,349.97,357.26,31.69,0000 0000 0000 0000 000000
2014-12-08 07:40:33,-0.05,5.86,0.00,19.88,24.17,27.23,4.92,27.71,1032.94,2041.29,1717.00,2088.99,2261.30,349.90,356.88,31.72,0000 0000 0000 0000 000000
2014-12-08 07:45:35,0.06,5.86,0.00,19.89,24.20,27.26,4.92,27.65,1033.15,2041.27,1716.98,2088.72,2261.00,349.91,357.02,31.75,0000 0000 0000 0000 000000
2014-12-08 07:50:36,0.10,5.87,0.00,19.93,24.21,27.25,4.89,27.68,1033.15,2041.05,1716.20,2088.03,2260.63,349.66,356.85,31.78,0000 0000 0000 0000 000000
2014-12-08 07:55:37,0.03,5.87,0.00,19.93,24.23,27.26,4.97,27.48,1033.16,2041.00,1715.95,2087.88,2260.01,350.29,357.33,31.81,0000 0000 0000 0000 000000
2014-12-08 08:00:38,0.14,5.87,0.00,19.93,24.25,27.27,4.84,27.46,1033.17,2041.00,1715.16,2087.11,2259.91,349.39,356.37,31.84,0000 0000 0000 0000 000000
2014-12-08 08:05:40,0.05,5.87,0.00,19.96,24.27,27.30,4.92,27.52,1033.20,2041.00,1714.99,2086.99,2259.11,349.89,357.05,31.87,0000 0000 0000 0000 000000
2014-12-08 08:10:41,0.15,5.88,0.00,19.98,24.30,27.29,4.93,27.53,1033.22,2041.00,1714.43,2086.42,2258.97,350.07,357.08,31.90,0000 0000 0000 0000 000000
2014-12-08 08:15:42,0.06,5.88,0.00,20.01,24.32,27.29,4.93,27.55,1033.22,2041.00,1713.93,2086.00,2258.38,350.47,357.26,31.93,0000 0000 0000 0000 000000
2014-12-08 08:20:44,0.14,5.88,0.00,20.05,24.34,27.33,4.96,27.48,1033.23,2040.98,1713.21,2085.48,2257.94,349.64,356.45,31.96,0000 0000 0000 0000 000000
2014-12-08 08:25:45,0.12,5.89,0.00,20.05,24.36,27.37,4.89,27.57,1033.24,2040.97,1712.57,2085.00,2257.12,349.79,356.77,31.99,0000 0000 0000 0000 000000
2014-12-08 08:30:47,0.13,5.89,0.00,20.08,24.38,27.41,4.84,27.57,1033.45,2040.91,1711.98,2084.25,2256.51,349.48,356.67,32.01,0000 0000 0000 0000 000000
2014-12-08 08:35:48,0.10,5.89,0.00,20.09,24.40,27.45,4.92,27.75,1033.65,2040.64,1711.14,2083.57,2255.66,349.51,356.94,32.04,0000 0000 0000 0000 000000
2014-12-08 08:40:49,0.05,5.90,0.00,20.10,24.42,27.49,4.90,27.52,1033.70,2040.18,1710.16,2082.89,2254.93,350.01,357.08,32.07,0000 0000 0000 0000 000000
2014-12-08 08:45:50,0.18,5.90,0.00,20.10,24.44,27.51,4.94,27.63,1033.70,2040.07,1709.52,2082.07,2254.08,349.78,356.91,32.10,0000 0000 0000 0000 000000
2014-12-08 08:50:51,0.18,5.91,0.00,20.14,24.46,27.52,4.91,27.68,1033.69,2040.02,1708.70,2081.31,2253.26,350.05,357.18,32.13,0000 0000 0000 0000 000000
2014-12-08 08:55:52,0.12,5.91,0.00,20.12,24.48,27.52,5.00,27.82,1033.70,2040.00,1708.04,2080.73,2252.46,350.44,357.83,32.16,0000 0000 0000 0000 000000
2014-12-08 09:00:53,0.12,5.91,0.00,20.15,24.50,27.55,4.89,27.57,1033.69,2040.00,1707.44,2080.02,2251.90,349.61,356.72,32.19,0000 0000 0000 0000 000000
2014-12-08 09:05:54,0.14,5.92,0.00,20.18,24.52,27.58,4.92,27.52,1033.63,2040.00,1706.82,2079.48,2251.09,349.72,356.62,32.22,0000 0000 0000 0000 000000
2014-12-08 09:10:55,0.09,5.92,0.00,20.19,24.55,27.57,4.87,27.53,1033.59,2040.00,1706.03,2079.00,2250.80,350.23,357.03,32.25,0000 0000 0000 0000 000000
2014-12-08 09:15:57,0.19,5.93,0.00,20.22,24.57,27.60,4.86,27.54,1033.57,2040.00,1705.25,2078.24,2250.02,349.57,356.54,32.28,0000 0000 0000 0000 000000
2014-12-08 09:20:58,0.15,5.93,0.00,20.21,24.59,27.64,4.86,27.44,1033.64,2039.98,1704.57,2077.75,2249.22,349.05,355.70,32.31,0000 0000 0000 0000 000000
2014-12-08 09:26:00,0.10,5.93,0.00,20.21,24.61,27.67,4.88,27.51,1033.63,2039.96,1703.92,2077.03,2248.71,349.82,356.62,32.34,0000 0000 0000 0000 000000
2014-12-08 09:31:01,0.14,5.94,0.00,20.23,24.62,27.73,4.95,27.62,1033.61,2039.91,1703.14,2076.55,2248.03,350.58,357.33,32.37,0000 0000 0000 0000 000000
2014-12-08 09:36:02,0.03,5.94,0.00,20.27,24.65,27.73,4.93,27.40,1033.66,2039.75,1702.85,2076.02,2247.54,350.05,356.80,32.40,0000 0000 0000 0000 000000
2014-12-08 09:41:04,0.05,5.94,0.00,20.30,24.66,27.77,4.93,27.72,1033.56,2039.29,1702.06,2075.50,2247.00,350.24,356.86,32.42,0000 0000 0000 0000 000000
2014-12-08 09:46:05,0.04,5.94,0.00,20.33,24.68,27.77,4.99,27.57,1033.53,2039.09,1701.82,2075.01,2246.52,350.00,356.68,32.45,0000 0000 0000 0000 000000
2014-12-08 09:51:06,0.09,5.95,0.00,20.34,24.70,27.78,4.93,27.54,1033.54,2039.03,1701.05,2074.77,2246.01,349.87,356.57,32.48,0000 0000 0000 0000 000000
2014-12-08 09:56:08,0.14,5.95,0.00,20.37,24.72,27.78,4.94,27.68,1033.47,2039.03,1700.59,2074.05,2245.63,349.97,356.67,32.51,0000 0000 0000 0000 000000
2014-12-08 10:01:09,0.04,5.95,0.00,20.40,24.74,27.83,5.01,27.62,1033.58,2039.01,1700.02,2073.96,2245.05,350.98,357.64,32.54,0000 0000 0000 0000 000000
2014-12-08 10:06:10,0.14,5.95,0.00,20.41,24.76,27.87,4.90,27.52,1033.37,2039.00,1699.69,2073.20,2244.80,350.09,356.63,32.57,0000 0000 0000 0000 000000
2014-12-08 10:11:11,0.07,5.96,0.00,20.40,24.78,27.88,4.94,27.51,1033.46,2039.00,1699.03,2073.00,2244.08,350.34,356.92,32.60,0000 0000 0000 0000 000000
2014-12-08 10:16:12,0.06,5.96,0.00,20.45,24.80,27.87,4.95,27.46,1033.52,2038.99,1698.98,2072.61,2243.93,350.15,356.36,32.63,0000 0000 0000 0000 000000
2014-12-08 10:21:13,0.13,5.96,0.00,20.45,24.82,27.90,4.98,27.73,1033.57,2038.98,1698.52,2072.02,2243.14,350.01,356.65,32.66,0000 0000 0000 0000 000000
2014-12-08 10:26:15,0.02,5.96,0.00,20.46,24.84,27.91,4.94,27.61,1033.62,2038.92,1698.01,2071.89,2242.96,350.29,356.95,32.69,0000 0000 0000 0000 000000
2014-12-08 10:31:16,0.14,5.97,0.00,20.51,24.86,27.96,4.99,27.53,1033.56,2038.86,1697.69,2071.13,2242.40,350.50,357.02,32.72,0000 0000 0000 0000 000000
2014-12-08 10:36:17,0.02,5.97,0.00,20.52,24.88,27.99,4.88,27.49,1033.67,2038.64,1697.06,2070.99,2242.00,349.89,356.40,32.75,0000 0000 0000 0000 000000
2014-12-08 10:41:18,0.03,5.97,0.00,20.52,24.90,27.98,4.96,27.43,1033.70,2038.17,1696.78,2070.42,2241.51,350.15,356.40,32.78,0000 0000 0000 0000 000000
2014-12-08 10:46:20,0.06,5.97,0.00,20.56,24.92,27.97,4.99,27.32,1033.71,2038.06,1696.10,2070.01,2241.02,350.23,356.44,32.81,0000 0000 0000 0000 000000
2014-12-08 10:51:21,0.02,5.97,0.00,20.59,24.94,28.04,4.93,27.43,1033.71,2038.03,1695.97,2069.91,2240.89,349.84,356.27,32.83,0000 0000 0000 0000 000000
2014-12-08 10:56:22,0.18,5.98,0.00,20.60,24.96,28.08,4.94,27.63,1033.72,2038.01,1695.34,2069.17,2240.15,349.75,356.17,32.86,0000 0000 0000 0000 000000
2014-12-08 11:01:23,0.01,5.98,0.00,20.60,24.97,28.07,4.95,27.51,1033.73,2038.01,1695.00,2068.99,2239.98,350.22,356.88,32.89,0000 0000 0000 0000 000000
2014-12-08 11:06:24,0.14,5.98,0.00,20.61,24.98,28.09,4.87,27.60,1033.77,2038.00,1694.33,2068.67,2239.64,349.95,356.38,32.92,0000 0000 0000 0000 000000
2014-12-08 11:11:26,0.07,5.98,0.00,20.64,25.01,28.13,4.91,27.47,1033.95,2038.00,1694.00,2068.05,2239.06,349.06,355.61,32.95,0000 0000 0000 0000 000000
2014-12-08 11:16:27,0.04,5.98,0.00,20.68,25.02,28.15,4.86,27.43,1034.13,2038.00,1693.73,2067.98,2238.98,349.95,356.56,32.98,0000 0000 0000 0000 000000
2014-12-08 11:21:28,0.17,5.99,0.00,20.66,25.05,28.13,4.85,27.38,1034.17,2038.00,1693.04,2067.28,2238.36,349.62,355.97,33.01,0000 0000 0000 0000 000000
2014-12-08 11:26:30,0.01,5.99,0.00,20.67,25.06,28.18,4.91,27.36,1034.19,2038.00,1692.94,2067.00,2238.00,349.40,355.84,33.04,0000 0000 0000 0000 000000
2014-12-08 11:31:31,0.10,5.99,0.00,20.67,25.08,28.19,4.91,27.42,1034.19,2037.99,1692.22,2066.86,2237.69,350.34,356.72,33.07,0000 0000 0000 0000 000000
2014-12-08 11:36:32,0.10,6.00,0.00,20.70,25.10,28.18,4.94,27.40,1034.20,2037.97,1691.98,2066.09,2237.04,350.21,356.71,33.10,0000 0000 0000 0000 000000
2014-12-08 11:41:34,0.08,6.00,0.00,20.78,25.12,28.22,4.87,27.42,1034.20,2037.83,1691.23,2065.95,2236.67,349.66,356.03,33.13,0000 0000 0000 0000 000000
2014-12-08 11:46:35,0.02,6.00,0.00,20.80,25.14,28.24,5.04,27.39,1034.20,2037.65,1691.36,2065.54,2236.03,350.06,356.42,33.16,0000 0000 0000 0000 000000
2014-12-08 11:51:36,-0.06,6.00,0.00,20.81,25.15,28.22,4.98,27.51,1034.20,2037.20,1690.98,2065.01,2235.87,350.16,356.47,33.19,0000 0000 0000 0000 000000
2014-12-08 11:56:37,0.13,6.00,0.00,20.82,25.17,28.24,4.83,27.39,1034.20,2037.07,1690.23,2064.83,2235.16,349.65,355.95,33.22,0000 0000 0000 0000 000000
2014-12-08 12:01:38,0.07,6.00,0.00,20.85,25.20,28.27,4.85,27.49,1034.20,2037.03,1689.98,2064.08,2234.99,349.69,356.07,33.24,0000 0000 0000 0000 000000
2014-12-08 12:06:39,0.10,6.01,0.00,20.87,25.21,28.31,4.93,27.45,1034.19,2037.02,1689.38,2063.99,2234.42,350.05,356.27,33.27,0000 0000 0000 0000 000000
2014-12-08 12:11:41,0.09,6.01,0.00,20.90,25.23,28.29,4.83,27.57,1034.17,2037.01,1688.99,2063.30,2234.01,349.52,355.79,33.30,0000 0000 0000 0000 000000
2014-12-08 12:16:42,0.12,6.01,0.00,20.91,25.25,28.35,4.93,27.52,1034.11,2037.00,1688.30,2063.00,2233.55,349.92,356.21,33.33,0000 0000 0000 0000 000000
2014-12-08 12:21:43,0.07,6.02,0.00,20.93,25.27,28.34,4.88,27.42,1034.14,2037.00,1688.00,2062.58,2233.02,349.71,355.80,33.36,0000 0000 0000 0000 000000
2014-12-08 12:26:44,0.11,6.02,0.00,20.94,25.29,28.39,4.95,27.67,1034.17,2037.00,1687.57,2062.03,2232.68,350.38,356.58,33.39,0000 0000 0000 0000 000000
2014-12-08 12:31:45,0.05,6.02,0.00,20.93,25.30,28.41,5.00,27.52,1034.17,2036.98,1687.00,2061.90,2232.03,350.43,356.61,33.42,0000 0000 0000 0000 000000
2014-12-08 12:36:47,0.11,6.02,0.00,20.96,25.32,28.43,4.85,27.47,1034.18,2036.98,1686.65,2061.15,2231.93,349.54,355.59,33.45,0000 0000 0000 0000 000000
2014-12-08 12:41:48,0.08,6.03,0.00,21.00,25.34,28.46,4.85,27.46,1034.17,2036.91,1686.04,2060.99,2231.12,350.07,356.05,33.48,0000 0000 0000 0000 000000
2014-12-08 12:46:49,0.07,6.03,0.00,21.03,25.36,28.48,4.92,27.39,1034.16,2036.79,1685.88,2060.47,2230.93,349.89,356.07,33.51,0000 0000 0000 0000 000000
2014-12-08 12:51:50,0.03,6.03,0.00,21.03,25.37,28.51,4.93,27.40,1034.15,2036.42,1685.10,2060.01,2230.16,349.62,355.46,33.54,0000 0000 0000 0000 000000
2014-12-08 12:56:51,-0.02,6.03,0.00,21.04,25.40,28.46,4.89,27.42,1034.17,2036.10,1685.00,2059.93,2229.83,350.00,356.04,33.57,0000 0000 0000 0000 000000
2014-12-08 13:01:53,0.11,6.03,0.00,21.08,25.42,28.53,4.86,27.38,1034.11,2036.02,1684.84,2059.22,2229.12,349.53,355.64,33.60,0000 0000 0000 0000 000000